Main page
METAR-TAF:

METAR-TAF

Airports :

Appleton Municipal Airport

Appleton, Minnesota, United States

latitude: 45-13-39N, longitude: 096-00-15W, elevation: 1017 ft

Current weather observation

The report was made 28 minutes ago, at 07:53 UTC
Wind 9 mph from the East/Southeast
Temperature 66°F
Humidity 56%
Pressure 29.57 in. Hg
Visibility: 10 miles
Clear sky

METAR: KAQP 240753Z AUTO 12008KT 10SM CLR 19/10 A2957 RMK AO2 TSNO

Time: 03:21 (08:21 UTC)


TAF: missing

Weather observations and forecasts of more than 4000 airports (METAR and TAF reports).

The available stations are represented by yellow and red dots on the map.

Hover mouse over dot to see the name of the station.

Then click to see weather observations and forecasts.

To change the map : click on the green buttons with a black cross to zoom in, on the green button with a dash to zoom out, or on the green arrows for adjacent maps.


METAR-TAF: